STARLINK-1545 (46156 NORAD) Tracking and Keplerian Element Data

This shows tracking and keplerian element data for the satellite.

Feedback or suggestion? Click here.




ElementValue
Catalog46156
NameSTARLINK-1545
Epoch Orbit179
Epoch Day335.91670139
Epoch Year2020
RAAN297.2467
Inclination53.0016
Eccentricity0.0001578
Argument of Perigee68.6282
Mean Anonmoly257.2401
Mean Motion15.0558256
Decay Rate0.00014148
L11 46156U 20057AR 20335.91670139 .00014148 00000-0 98812-3 0 9994
L22 46156 53.0016 297.2467 0001578 68.6282 257.2401 15.05582560 1794

Live tracking and technical data element details for STARLINK-1545 (NORAD 46156). STARLINK-1545 can be tracked NOW for your location showing map with azimuth and elevation plus other details from your city location.

Track the satellite on the map from your city or location and see movement details for azimuth, elevation, latitude, longitude, range, height, and movement on the map or in text.







IsCatalogInMostPopularTable: catalog: 46156, numindb: 15
Update: records affected: 1



GetName: 46156 STARLINK-1545

Hit Count: updated at: Wed, 02 Dec 2020 06:45:24 GMT